Below you will find the last 24 hours of weather readings for Cheney KS

Cheney KS Today's Weather Data

Observed at: Cheney, KS

Hour Observerd Temp Pressure Visibility Humidity Dew Point Wind
19:00 A Few Clouds and Breezy 79°F (26.1°C) 98.21 kPa 10 miles 39% 52°F (11.1°C) 24 mph N 5°34 mph
18:00 A Few Clouds and Breezy 86°F (30°C) 98.21 kPa 10 miles 31% 52°F (11.1°C) 20 mph N 5°31 mph
17:00 A Few Clouds 88°F (31.1°C) 98.21 kPa 10 miles 40% 61°F (16.1°C) 19 mph N 5°27 mph
16:00 A Few Clouds 88°F (31.1°C) 98.21 kPa 10 miles 40% 61°F (16.1°C) 19 mph N 5°27 mph
15:00 Partly Cloudy 89°F (31.7°C) 98.21 kPa 10 miles 41% 62.1°F (16.7°C) 16 mph NW 308.75°23 mph
14:00 A Few Clouds 90°F (32.2°C) 98.21 kPa 10 miles 41% 63°F (17.2°C) 10 mph W 263.75°28 mph
13:00 A Few Clouds 89°F (31.7°C) 98.21 kPa 10 miles 43% 64°F (17.8°C) 12 mph W 263.75°21 mph
12:00 A Few Clouds 86°F (30°C) 98.21 kPa 10 miles 51% 66°F (18.9°C) 18 mph SW 218.75°27 mph
11:00 Partly Cloudy and Breezy 82°F (27.8°C) 98.21 kPa 10 miles 63% 68°F (20°C) 21 mph S 173.75°31 mph
10:00 Partly Cloudy 75°F (23.9°C) 98.21 kPa 10 miles 76% 66.9°F (19.4°C) 18 mph S 173.75°26 mph
09:00 Partly Cloudy 74°F (23.3°C) 98.21 kPa 10 miles 82% 68°F (20°C) 16 mph S 173.75°25 mph
08:00 Mostly Cloudy 73°F (22.8°C) 98.21 kPa 10 miles 81% 66.9°F (19.4°C) 18 mph S 173.75°28 mph
07:00 Mostly Cloudy 74°F (23.3°C) 98.21 kPa 10 miles 79% 66.9°F (19.4°C) 18 mph S 173.75°38 mph
06:00 Mostly Cloudy 74°F (23.3°C) 98.21 kPa 10 miles 76% 66°F (18.9°C) 18 mph S 173.75°27 mph
05:00 Mostly Cloudy 74°F (23.3°C) 98.21 kPa 10 miles 76% 66°F (18.9°C) 18 mph S 173.75°27 mph
04:00 Partly Cloudy 74°F (23.3°C) 98.21 kPa 10 miles 76% 66°F (18.9°C) 18 mph S 173.75°28 mph
03:00 Mostly Cloudy 76°F (24.4°C) 98.21 kPa 10 miles 72% 66°F (18.9°C) 13 mph S 173.75°28 mph
02:00 Mostly Cloudy 75°F (23.9°C) 98.21 kPa 10 miles 74% 66°F (18.9°C) 13 mph S 173.75°28 mph
01:00 Partly Cloudy 75°F (23.9°C) 98.21 kPa 10 miles 74% 66°F (18.9°C) 13 mph S 173.75°26 mph
00:00 A Few Clouds 77°F (25°C) 98.21 kPa 10 miles 64% 64°F (17.8°C) 16 mph S 173.75°25 mph
23:00 A Few Clouds 78°F (25.6°C) 98.21 kPa 10 miles 58% 62.1°F (16.7°C) 13 mph S 173.75°24 mph
22:00 A Few Clouds 78°F (25.6°C) 98.21 kPa 10 miles 58% 62.1°F (16.7°C) 13 mph S 173.75°23 mph
21:00 Fair 80°F (26.7°C) 98.21 kPa 10 miles 54% 62.1°F (16.7°C) 13 mph S 173.75°18 mph
20:00 A Few Clouds 82°F (27.8°C) 98.21 kPa 10 miles 53% 63°F (17.2°C) 12 mph S 173.75°